Location: Poughquag
(41.6090°N, 73.6820°W)
Time: 09:56:27
(UTC-05:00)

Vanguard 1 - Pass Details

Date: 04 December 2023
Orbit: 653 x 3826 km, 34.3° (Epoch: 25 February)

Event Time Altitude Azimuth Distance (km) Brightness Sun altitude
Rises 00:59:31 0° 285° (WNW) 7,892 14.5 -65.0°
Enters shadow 01:01:32 - 282° (WNW) 7,588 14.4 -64.8°
Reaches altitude 10° 01:05:56 10° 276° (W) 6,935 - -64.2°
Maximum altitude 01:23:43 30° 226° (SW) 4,952 - -61.6°
Drops below altitude 10° 01:37:43 10° 173° (S) 5,389 - -59.4°
Sets 01:41:59 0° 163° (SSE) 5,966 - -58.7°
